Terminal Aerodrome Forecast
Issued by NWS

Home | Current Version | Previous Version | Text Only | Print | Product List | Glossary On
Versions: 1 2 3 4 5 6 7 8 9 10 11 12 13
522
FTUS42 TJSJ 261140
TAFIST
TAF
TIST 261140Z 2612/2712 08006KT P6SM FEW028 FEW080
     FM261330 13013KT P6SM FEW030 SCT080
     FM262330 09007KT P6SM FEW035=

USA.gov is the U.S. government's official web portal to all federal, state and local government web resources and services.